Flag for U.S.A. Weather past 2 weeks in Simi Valley, California, U.S.A.

Now
62 °F

Light rain. Passing clouds.


Feels Like: 62 °F
Forecast: 58 / 81 °F
Wind: No wind

Location: Van Nuys Airport

Current Time: Sep 5, 2015 at 6:19:51 AM

Latest Report: Sep 5, 2015 at 5:51 AM


Visibility: 10 mi

Pressure: 29.87 "Hg

Humidity: 75%

Dew point: 54 °F

Location of Simi ValleyLocation

Historic Weather in Simi Valley — Graph

°F

Simi Valley temperature yesterday

Maximum temperature yesterday: 80 °F (at 2:51 PM)
Minimum temperature yesterday: 65 °F (at 12:51 AM)
Average temperature yesterday: 70 °F

Past Weeks' High & Low Weather Summary

 TemperatureHumidityPressure
High103 °F (Aug 28, 2:51 PM)91% (Aug 22, 2:58 AM)29.97 "Hg (Aug 22, 2:58 AM)
Low62 °F (Sep 5, 4:51 AM)14% (Aug 28, 4:51 PM)29.77 "Hg (Aug 28, 4:51 PM)
Average78 °F56%29.87 "Hg
* Reported Aug 21 4:51 AM — Sep 5 4:51 AM, Simi Valley, Weather by CustomWeather, © 2015

Note: Actual official high and low records may vary slightly from our data, if they occured in-between our weather recording intervals... More about our weather records

Advertising

Simi Valley weather history for previous 24 hours

 ConditionsComfort  
Time TempWeatherWind HumidityBarometerVisibility
4:51 AM
Sat, Sep 5
62 °FClear.No wind80%29.86 "Hg10 mi
3:51 AM63 °FClear.No wind78%29.86 "Hg10 mi
2:51 AM64 °FClear.No wind75%29.86 "Hg10 mi
1:51 AM65 °FClear.No wind73%29.85 "Hg10 mi
12:51 AM66 °FClear.No wind70%29.86 "Hg10 mi
11:51 PM
Fri, Sep 4
66 °FClear.No wind70%29.86 "Hg10 mi
10:51 PM67 °FClear.No wind68%29.85 "Hg10 mi
9:51 PM68 °FClear.3 mph65%29.84 "Hg10 mi
8:51 PM70 °FClear.5 mph61%29.83 "Hg10 mi
7:51 PM71 °FSunny.5 mph55%29.82 "Hg10 mi
6:51 PM73 °FSunny.9 mph50%29.80 "Hg10 mi
5:51 PM78 °FSunny.10 mph39%29.80 "Hg10 mi
4:51 PM78 °FSunny.7 mph43%29.80 "Hg10 mi
3:51 PM79 °FSunny.12 mph44%29.80 "Hg10 mi
2:51 PM80 °FSunny.10 mph39%29.81 "Hg10 mi
1:51 PM78 °FPassing clouds.9 mph43%29.83 "Hg10 mi
12:51 PM76 °FScattered clouds.3 mph43%29.85 "Hg10 mi
11:51 AM73 °FPartly sunny.8 mph48%29.87 "Hg10 mi
10:51 AM71 °FOvercast.N/A51%29.89 "Hg10 mi
9:51 AM69 °FOvercast.9 mph57%29.88 "Hg10 mi
8:51 AM68 °FOvercast.7 mph59%29.88 "Hg10 mi
7:51 AM66 °FMostly cloudy.5 mph68%29.88 "Hg10 mi
6:51 AM66 °FOvercast.6 mph73%29.86 "Hg10 mi
Weather by CustomWeather, © 2015

See weather overviewHow to use our weather pages